Temperature
2 2 2 2 2 1 2 4 5 5 5 6 6 5 4 4 3 3 2 2 2 2 2 2 2 2 2 2 2 1 1 1 1 1 1 1 0 0 0 0 0 -0 -0 -0
1 1 1 1 2 2 1 2 3 3 4 5 4 3 3 3 2 2 2 2 2 2 2 2 2 2 2 1 1 1 1 1 1 1 0 0 0 -0 -0 -0 -0 -1 -1 -1
3 1 0 2 2 2 2 2 2 3 4 4 3 3 2 2 2 2 2 2 2 1 1 1 1 1 1 1 1 1 1 1 0 0 0 0 -0 -0 -1 -1 -1 -1 -1 -1
2 1 2 4 2 2 2 1 1 2 3 3 2 2 2 2 2 2 2 1 1 1 1 1 1 1 1 1 1 1 1 0 0 -0 -0 -0 -1 -1 -1 -1 -1 -1 -1 -1
1 2 3 3 1 1 1 2 2 1 2 1 0 1 2 2 2 1 1 1 1 1 1 1 1 1 0 0 1 1 0 0 0 -0 -0 -1 -1 -1 -1 -1 -1 -2 -2 -2
1 2 3 4 1 -0 1 2 2 1 1 0 0 3 3 2 1 1 1 1 1 1 0 0 0 0 0 0 0 0 0 0 -0 -0 -1 -1 -1 -1 -1 -2 -2 -2 -2 -2
1 2 3 2 -1 -0 2 3 1 0 -0 -0 1 2 1 1 1 1 0 0 0 0 -0 -0 0 -0 -0 -0 0 0 0 -0 -0 -1 -1 -1 -2 -2 -2 -2 -2 -2 -2 -2
1 1 3 0 -1 1 2 1 0 -0 -0 -0 0 0 0 0 0 0 -0 -0 -0 -0 -0 -1 -1 -1 -0 -0 -0 -0 -0 -0 -1 -1 -1 -2 -2 -2 -2 -3 -3 -3 -3 -3
1 2 1 -1 -0 0 0 0 0 0 0 -0 -0 -0 -0 -0 -0 -0 -1 -1 -1 -1 -1 -1 -1 -1 -1 -1 -1 -1 -1 -1 -1 -1 -2 -2 -2 -2 -3 -3 -3 -3 -3 -3
-1 0 -0 -1 -1 0 0 0 0 0 0 -0 -0 -0 -1 -1 -1 -1 -1 -1 -1 -1 -1 -1 -1 -1 -1 -1 -1 -1 -1 -1 -1 -2 -2 -2 -3 -3 -3 -3 -3 -3 -4 -4
-2 -0 -1 -0 0 1 0 0 0 0 0 -0 -0 -1 -1 -1 -1 -1 -1 -1 -2 -2 -2 -2 -2 -2 -2 -2 -2 -2 -2 -2 -2 -2 -2 -3 -3 -3 -3 -3 -3 -3 -4 -4
1 1 0 1 1 1 0 0 -0 -0 -0 -1 -1 -1 -1 -1 -1 -1 -2 -2 -2 -2 -2 -2 -2 -2 -2 -2 -2 -2 -2 -2 -2 -3 -3 -3 -3 -3 -3 -3 -3 -4 -4 -4
-0 -0 -0 0 0 0 0 -0 -0 -1 -1 -1 -1 -1 -1 -1 -2 -2 -2 -2 -2 -2 -2 -2 -2 -2 -2 -2 -2 -3 -3 -3 -3 -3 -3 -3 -4 -4 -4 -4 -4 -4 -4 -4
-1 -1 -1 -0 -0 -0 -1 -1 -1 -1 -1 -1 -1 -2 -2 -2 -2 -2 -2 -2 -2 -2 -2 -2 -2 -2 -3 -3 -3 -3 -3 -3 -3 -3 -3 -4 -4 -4 -4 -4 -4 -4 -4 -4
-1 -1 -1 -1 -1 -1 -1 -1 -2 -2 -2 -2 -2 -2 -2 -2 -2 -2 -2 -2 -2 -2 -3 -3 -3 -3 -3 -3 -3 -3 -3 -3 -3 -4 -4 -4 -4 -4 -4 -4 -4 -4 -5 -5
-1 -1 -2 -2 -2 -2 -2 -2 -2 -2 -2 -2 -2 -2 -2 -2 -2 -2 -2 -2 -2 -2 -3 -3 -3 -3 -3 -3 -3 -3 -3 -4 -4 -4 -4 -4 -4 -5 -5 -5 -5 -5 -5 -5
-2 -2 -2 -2 -2 -2 -2 -2 -2 -2 -3 -3 -2 -3 -3 -3 -2 -2 -2 -2 -3 -3 -3 -3 -3 -3 -3 -3 -4 -4 -4 -4 -4 -4 -4 -4 -4 -5 -5 -5 -5 -5 -5 -5
-2 -2 -2 -2 -2 -2 -2 -3 -3 -3 -3 -3 -3 -3 -3 -3 -3 -3 -3 -3 -3 -3 -3 -3 -3 -4 -4 -4 -4 -4 -4 -4 -4 -4 -4 -5 -5 -5 -5 -5 -5 -5 -5 -6
-2 -2 -2 -2 -3 -3 -3 -3 -3 -3 -3 -3 -3 -3 -3 -3 -3 -3 -3 -3 -3 -3 -3 -3 -4 -4 -4 -4 -4 -4 -4 -4 -4 -4 -5 -5 -5 -5 -5 -5 -5 -6 -6 -6
-3 -3 -3 -3 -3 -3 -3 -3 -3 -3 -3 -3 -3 -3 -3 -3 -3 -3 -3 -3 -3 -3 -3 -4 -4 -4 -4 -4 -4 -4 -4 -4 -5 -5 -5 -5 -5 -5 -5 -5 -6 -6 -6 -6
-3 -3 -3 -3 -3 -3 -3 -3 -3 -3 -3 -3 -3 -3 -3 -4 -4 -4 -4 -4 -3 -4 -4 -4 -4 -4 -4 -4 -4 -4 -5 -5 -5 -5 -5 -5 -5 -5 -5 -5 -6 -6 -6 -6
-3 -3 -3 -3 -3 -3 -3 -3 -3 -3 -3 -3 -4 -4 -4 -4 -4 -4 -4 -4 -4 -4 -4 -4 -4 -4 -4 -5 -5 -5 -5 -5 -5 -5 -5 -5 -5 -5 -6 -6 -6 -6 -6 -6
-3 -3 -3 -3 -3 -3 -3 -4 -4 -4 -4 -4 -4 -4 -4 -4 -4 -4 -4 -4 -4 -4 -4 -4 -4 -4 -5 -5 -5 -5 -5 -5 -5 -5 -5 -5 -5 -5 -6 -6 -6 -6 -6 -6
-3 -4 -4 -4 -4 -4 -4 -4 -4 -4 -4 -4 -4 -4 -4 -4 -4 -4 -4 -4 -4 -4 -4 -4 -4 -4 -5 -5 -5 -5 -5 -5 -5 -5 -5 -5 -6 -6 -6 -6 -6 -6 -6 -6
-4 -4 -4 -4 -4 -4 -4 -4 -4 -4 -4 -4 -4 -4 -4 -4 -4 -4 -4 -4 -4 -5 -5 -5 -5 -5 -5 -5 -5 -5 -5 -5 -5 -5 -5 -6 -6 -6 -6 -6 -6 -6 -6 -6
-4 -4 -4 -4 -4 -4 -4 -4 -4 -4 -4 -4 -4 -5 -5 -5 -5 -5 -5 -5 -5 -5 -5 -5 -5 -5 -5 -5 -5 -5 -5 -5 -5 -5 -5 -6 -6 -6 -6 -6 -6 -6 -6 -6
-4 -4 -4 -4 -4 -5 -5 -5 -5 -5 -5 -5 -5 -5 -5 -5 -5 -5 -5 -5 -5 -5 -5 -5 -5 -5 -5 -5 -5 -5 -5 -5 -5 -5 -6 -6 -6 -6 -6 -6 -6 -6 -6 -6
Wind_Speed
7 5 3 6 8 11 13 12 11 11 12 12 8 7 7 6 5 5 5 5 5 5 5 4 4 3 3 3 4 4 5 5 6 5 5 5 5 5 5 5 5 5 5 5
5 6 7 8 11 13 14 14 14 14 15 13 8 7 6 6 6 6 6 6 6 6 6 5 5 5 4 4 4 4 5 5 5 5 5 5 5 5 5 5 5 5 5 5
5 3 5 10 12 14 12 11 11 14 13 7 6 6 7 6 6 7 7 7 7 7 6 6 6 5 5 5 4 5 5 5 5 5 5 5 5 5 5 5 5 6 5 5
3 3 8 5 1 7 10 11 12 10 9 7 7 7 7 7 7 8 7 7 7 6 6 6 5 5 5 4 5 5 5 5 5 5 5 5 5 5 5 5 5 5 5 5
4 5 8 5 3 5 7 8 10 13 12 8 5 6 7 6 6 7 7 7 7 6 6 5 5 5 4 5 5 5 5 5 5 5 5 5 5 5 5 5 5 5 5 5
4 5 6 3 2 2 3 5 4 8 8 6 3 5 6 3 4 6 7 6 6 6 5 5 5 4 5 5 6 6 6 5 5 5 6 6 6 5 4 4 5 4 4 5
7 6 7 2 2 4 4 3 0 4 6 6 6 6 6 5 6 6 6 6 5 5 5 5 4 5 6 6 7 6 5 4 5 5 5 6 5 4 4 4 4 4 4 4
6 7 7 3 5 6 3 2 2 3 5 6 7 7 7 7 7 6 6 6 5 5 5 5 4 5 6 7 6 4 4 4 4 4 4 4 4 4 4 4 4 3 3 3
7 6 2 5 6 5 3 4 5 5 5 6 7 7 7 7 7 6 6 6 5 5 5 5 5 6 7 6 4 4 4 4 4 4 4 4 4 4 4 3 3 3 3 3
6 9 8 8 8 8 7 7 7 7 6 6 7 8 8 7 7 6 6 6 5 5 5 5 4 5 5 4 4 4 4 4 3 3 3 3 3 4 4 4 3 3 3 3
8 9 7 8 9 9 9 8 8 8 7 8 8 8 8 7 7 6 6 5 5 5 6 6 5 4 4 4 4 4 4 3 3 3 3 3 3 3 4 4 3 3 3 3
8 7 7 7 6 7 8 8 8 7 7 7 8 8 8 7 7 6 6 6 5 5 5 5 4 4 4 4 4 4 4 3 3 3 3 3 2 1 1 3 3 3 3 3
9 7 8 9 8 7 8 9 8 8 8 8 8 7 7 7 6 6 6 6 6 6 5 5 4 4 3 4 4 4 4 4 3 3 3 3 3 2 1 1 1 2 3 3
9 7 8 8 8 7 7 8 7 7 7 7 7 6 6 6 6 6 6 6 5 5 5 4 4 4 3 3 4 4 4 4 3 3 3 3 3 2 2 2 1 1 2 3
9 9 9 8 7 6 6 5 5 6 6 6 6 5 6 6 7 6 5 4 4 4 4 4 4 4 3 3 3 4 3 3 3 2 2 2 2 2 2 2 2 1 1 1
7 7 8 9 9 8 6 6 6 7 6 6 6 6 6 6 6 5 4 3 4 4 4 4 4 3 3 3 3 3 3 3 3 3 3 2 2 2 2 2 2 1 1 1
5 6 7 7 8 7 7 7 7 7 6 6 6 5 4 4 4 4 4 4 4 5 5 4 4 3 3 4 4 3 3 3 4 3 3 3 3 2 2 2 2 2 2 2
8 8 7 7 7 8 8 7 7 7 6 6 5 4 4 4 5 5 4 3 3 3 4 3 3 3 3 4 4 3 3 3 3 3 3 3 2 2 2 2 2 2 1 1
6 6 6 6 6 6 7 6 6 6 5 5 5 5 5 5 5 4 3 3 3 4 3 2 3 3 3 4 4 3 4 4 3 3 3 3 3 2 2 2 2 2 1 1
4 4 4 4 4 5 5 5 5 5 5 4 4 4 5 4 4 3 3 4 4 3 2 2 3 3 3 4 4 3 4 4 4 3 3 3 3 2 2 2 2 2 2 2
3 3 3 4 4 4 4 4 4 4 4 4 4 5 5 4 3 3 3 3 2 2 2 3 2 2 3 3 4 3 4 4 4 3 3 3 3 2 2 2 2 2 2 2
3 3 3 3 3 4 4 3 3 4 3 3 4 4 3 3 3 3 3 3 2 2 1 2 2 3 3 4 3 3 4 4 3 3 3 3 3 2 2 2 2 2 2 2
3 3 3 3 4 4 3 3 3 3 3 4 4 4 4 3 3 3 2 2 2 2 2 2 3 4 5 4 3 3 4 4 3 3 3 3 3 3 2 2 2 2 2 2
3 3 3 3 2 2 3 3 3 3 3 3 3 3 3 2 2 2 2 2 2 2 2 2 4 5 5 3 3 3 3 3 3 3 3 3 2 2 2 2 2 2 2 2
3 2 2 2 2 3 3 3 2 2 2 2 2 2 2 2 2 2 1 2 2 2 2 3 4 5 3 2 3 3 3 3 3 3 3 3 3 2 2 2 2 2 2 2
2 2 3 3 3 2 2 2 2 2 2 2 2 1 1 1 1 1 1 2 2 2 2 2 3 3 2 2 3 3 3 3 3 3 3 3 3 3 2 2 2 2 2 2
2 2 2 2 2 2 2 2 2 2 2 2 2 1 1 1 1 1 1 1 1 1 1 2 2 2 2 2 2 2 2 2 2 2 2 2 2 2 2 3 2 2 2 2
Wind_Direction
253 265 236 236 227 212 217 230 242 251 252 262 270 273 273 273 273 277 277 270 265 263 261 257 255 249 240 234 226 219 219 222 228 230 228 228 229 230 231 235 239 239 242 247
249 249 247 257 246 231 231 237 245 258 264 268 276 273 266 259 258 268 272 271 270 268 263 256 250 247 244 241 234 225 225 229 231 230 228 228 229 229 231 235 237 238 241 245
254 244 257 257 240 226 225 225 227 241 253 265 268 265 266 265 260 265 271 274 274 269 263 259 254 248 244 241 235 228 230 232 229 227 229 230 229 228 231 234 234 236 241 244
239 208 240 256 253 218 223 236 228 243 258 259 263 277 278 265 263 272 275 275 273 271 268 264 254 248 245 237 230 231 234 234 231 227 229 230 227 228 231 232 233 237 240 246
208 237 265 270 229 202 211 250 232 238 251 260 280 290 273 254 258 268 274 276 274 270 268 264 253 241 236 238 235 234 236 235 232 229 228 226 227 228 229 230 234 239 244 245
206 231 250 266 154 176 196 258 229 221 237 245 240 263 277 282 281 287 285 280 279 277 272 264 255 235 227 233 235 238 240 239 234 228 226 226 227 228 228 230 237 243 247 248
222 239 261 270 149 165 206 268 187 217 230 227 236 262 290 292 287 288 288 287 284 276 271 264 253 233 231 234 238 244 243 239 231 226 225 225 223 223 224 228 235 242 249 253
205 227 248 162 160 200 249 311 259 250 246 246 258 273 280 280 282 285 286 285 282 277 275 268 246 231 236 240 243 239 233 230 227 223 221 217 215 217 219 221 226 236 245 259
209 230 282 183 213 243 272 267 265 261 258 252 262 268 272 277 278 277 277 279 282 275 275 267 247 234 238 244 236 227 224 223 220 218 216 210 208 208 212 215 222 231 240 255
243 254 256 244 251 261 260 260 268 271 267 254 255 264 271 277 279 276 276 274 274 272 270 268 256 244 241 235 222 218 219 217 212 210 209 204 205 207 210 212 217 227 242 254
247 262 277 260 247 253 259 261 267 270 265 257 255 264 267 272 273 272 273 271 265 260 264 268 263 252 240 222 210 212 213 210 209 212 210 205 212 219 220 222 223 226 235 245
239 240 240 258 258 252 253 260 261 264 268 261 253 258 265 265 266 266 266 266 263 262 263 265 258 251 241 222 206 202 204 205 207 209 208 206 203 218 242 237 243 247 260 267
248 257 256 268 274 263 259 261 262 260 262 267 263 256 258 263 264 262 261 260 259 261 262 260 253 248 240 223 208 205 206 205 204 205 205 200 196 198 213 247 237 239 252 266
247 254 265 266 270 269 264 265 267 268 266 265 264 261 258 261 262 259 258 259 260 257 253 249 245 247 240 219 208 206 204 201 199 203 202 198 200 202 201 203 224 257 258 263
248 243 252 271 276 273 271 269 268 269 272 273 267 258 255 257 259 262 266 264 254 246 244 241 240 244 228 212 206 199 193 192 195 194 190 190 190 190 195 204 218 240 275 288
257 253 252 257 262 267 269 265 263 267 273 276 273 265 259 256 260 265 261 245 238 243 243 242 243 240 213 204 200 193 193 188 186 178 176 181 184 184 192 204 217 230 244 270
237 244 243 251 258 263 263 261 260 264 268 269 271 269 259 253 258 260 258 247 244 247 244 242 247 233 205 198 194 190 184 180 175 173 180 184 186 190 197 206 216 234 253 262
240 245 244 248 253 260 266 268 265 264 264 267 267 256 242 239 247 255 259 258 259 261 251 241 233 217 204 195 189 185 180 177 177 179 180 185 186 189 197 208 219 232 254 260
244 248 252 254 254 253 258 264 267 267 268 258 249 248 244 243 245 249 246 235 239 251 257 247 227 205 201 193 185 182 179 173 172 176 177 179 182 189 196 208 220 229 239 249
251 253 257 262 263 257 259 266 269 268 265 254 246 248 249 249 243 237 233 236 239 248 246 236 211 199 194 186 176 179 179 177 176 176 175 179 186 192 200 209 216 225 234 244
250 252 259 266 275 277 270 267 263 264 265 253 242 243 247 249 234 220 226 248 255 245 227 207 193 198 190 174 170 174 172 173 176 179 182 184 187 193 200 206 213 224 234 245
252 251 260 267 273 282 287 281 271 266 264 261 260 249 242 242 231 224 227 241 250 239 213 198 198 200 182 164 168 170 170 169 172 177 181 182 186 194 202 208 216 225 232 237
261 258 259 262 266 277 290 286 274 265 261 259 255 248 241 240 229 223 240 236 231 224 211 206 201 185 166 159 164 168 170 171 175 180 183 185 188 195 202 208 217 224 228 234
264 263 268 275 273 269 278 286 284 277 271 265 258 248 238 234 237 235 250 227 223 211 209 200 184 173 159 158 162 167 171 173 178 181 182 184 189 196 202 207 217 226 231 236
262 263 259 251 254 261 269 282 289 286 280 276 277 260 236 230 233 238 230 212 208 195 190 185 171 162 157 158 165 169 174 179 181 180 183 186 192 198 204 209 217 224 230 234
272 266 263 260 262 265 266 265 270 276 273 277 289 281 259 237 225 215 205 202 191 174 162 166 170 166 167 167 170 172 175 179 181 187 191 192 197 202 208 213 219 222 228 232
282 278 279 282 277 261 255 253 257 259 254 252 271 280 264 228 185 170 166 166 162 163 160 160 166 170 171 172 171 173 176 180 184 191 196 198 200 205 210 213 219 223 223 228
Height
1490 1490 1491 1489 1490 1493 1491 1483 1479 1473 1474 1470 1472 1473 1474 1474 1474 1474 1474 1473 1473 1472 1472 1472 1472 1472 1472 1472 1472 1472 1472 1472 1473 1473 1473 1474 1474 1474 1475 1475 1475 1475 1475 1474
1491 1491 1492 1490 1486 1487 1487 1484 1481 1478 1473 1469 1471 1472 1472 1472 1472 1471 1471 1470 1470 1469 1469 1469 1469 1468 1468 1468 1469 1469 1468 1469 1469 1469 1469 1469 1470 1470 1470 1470 1470 1471 1471 1470
1481 1489 1490 1479 1474 1477 1477 1476 1475 1471 1467 1467 1469 1469 1469 1469 1469 1468 1467 1467 1466 1466 1466 1465 1465 1465 1465 1465 1465 1465 1465 1465 1465 1465 1465 1465 1465 1465 1466 1466 1466 1466 1466 1466
1483 1487 1479 1465 1470 1470 1471 1470 1471 1468 1466 1467 1467 1467 1467 1466 1466 1465 1464 1464 1463 1462 1462 1462 1462 1461 1461 1461 1461 1461 1461 1461 1461 1461 1460 1461 1461 1461 1462 1462 1462 1462 1462 1462
1481 1475 1465 1465 1468 1469 1469 1465 1464 1465 1464 1465 1466 1465 1463 1462 1462 1462 1461 1460 1460 1459 1458 1458 1458 1457 1457 1457 1457 1457 1457 1457 1456 1456 1456 1456 1456 1457 1458 1458 1458 1458 1458 1458
1480 1472 1464 1459 1465 1467 1468 1462 1459 1460 1461 1462 1464 1461 1459 1459 1459 1458 1457 1457 1456 1455 1454 1454 1454 1453 1453 1453 1452 1452 1452 1452 1452 1452 1452 1452 1453 1453 1454 1454 1454 1454 1454 1453
1475 1470 1460 1462 1465 1467 1463 1457 1458 1458 1458 1459 1459 1458 1457 1456 1455 1455 1454 1453 1452 1451 1450 1449 1449 1449 1449 1448 1448 1449 1449 1448 1448 1448 1449 1449 1449 1450 1450 1450 1450 1450 1450 1449
1472 1469 1461 1462 1464 1462 1456 1456 1456 1456 1456 1456 1455 1454 1454 1453 1452 1451 1450 1449 1448 1446 1445 1445 1445 1445 1444 1444 1445 1445 1444 1444 1444 1445 1445 1445 1446 1446 1446 1446 1446 1446 1446 1446
1464 1459 1457 1458 1457 1456 1455 1455 1454 1454 1453 1453 1452 1451 1450 1449 1448 1447 1446 1445 1444 1442 1441 1440 1440 1440 1440 1440 1440 1440 1440 1440 1440 1441 1441 1442 1442 1442 1442 1443 1443 1442 1442 1442
1463 1456 1455 1455 1454 1453 1453 1452 1451 1451 1450 1449 1448 1447 1447 1446 1444 1443 1442 1441 1440 1438 1437 1436 1436 1436 1436 1436 1436 1436 1436 1436 1437 1437 1438 1438 1439 1439 1439 1439 1439 1439 1439 1439
1458 1453 1452 1450 1450 1450 1449 1449 1448 1447 1447 1445 1444 1443 1443 1441 1440 1439 1438 1437 1436 1434 1433 1432 1432 1432 1432 1432 1432 1432 1433 1433 1433 1434 1434 1435 1435 1436 1436 1436 1436 1437 1436 1436
1447 1447 1448 1446 1446 1446 1446 1445 1444 1443 1442 1441 1441 1439 1438 1437 1436 1435 1434 1433 1432 1431 1430 1429 1428 1428 1428 1428 1428 1429 1429 1430 1430 1431 1431 1431 1432 1432 1433 1433 1434 1434 1434 1434
1443 1443 1443 1442 1442 1442 1441 1440 1440 1439 1438 1437 1436 1435 1434 1433 1432 1431 1430 1429 1428 1427 1426 1426 1425 1425 1425 1425 1425 1426 1426 1427 1427 1427 1428 1428 1429 1429 1429 1431 1431 1431 1431 1430
1440 1440 1439 1438 1438 1437 1437 1436 1435 1434 1434 1433 1432 1431 1430 1429 1428 1427 1426 1425 1424 1423 1423 1422 1422 1422 1422 1422 1423 1423 1424 1424 1425 1425 1425 1426 1426 1427 1427 1427 1427 1427 1428 1428
1435 1436 1435 1434 1434 1433 1432 1431 1431 1430 1429 1428 1427 1426 1425 1424 1423 1423 1422 1421 1420 1420 1419 1419 1419 1419 1419 1420 1420 1420 1421 1422 1422 1423 1423 1424 1424 1424 1425 1425 1425 1425 1425 1425
1430 1430 1430 1430 1429 1429 1428 1427 1426 1425 1424 1423 1422 1422 1421 1420 1420 1419 1418 1418 1417 1416 1416 1416 1416 1416 1416 1417 1418 1418 1419 1420 1420 1421 1421 1421 1422 1422 1422 1423 1423 1423 1422 1422
1426 1425 1425 1425 1424 1424 1423 1423 1422 1421 1420 1419 1418 1417 1417 1416 1416 1415 1415 1414 1414 1414 1413 1413 1413 1413 1414 1414 1415 1416 1417 1418 1418 1419 1419 1419 1420 1420 1420 1420 1420 1420 1420 1420
1422 1421 1421 1420 1420 1419 1419 1418 1418 1417 1416 1416 1415 1414 1413 1413 1412 1412 1411 1411 1411 1411 1410 1410 1410 1411 1411 1412 1413 1414 1415 1415 1416 1416 1417 1417 1418 1418 1418 1418 1418 1418 1418 1418
1417 1417 1417 1417 1417 1416 1415 1414 1414 1413 1412 1412 1411 1410 1410 1409 1409 1409 1408 1408 1408 1407 1408 1408 1408 1409 1409 1410 1411 1412 1413 1413 1414 1414 1415 1415 1416 1416 1416 1416 1416 1416 1416 1416
1414 1414 1414 1413 1413 1413 1412 1411 1410 1409 1409 1408 1407 1407 1406 1406 1406 1406 1405 1405 1405 1405 1405 1405 1406 1406 1407 1408 1409 1410 1411 1411 1412 1412 1413 1413 1414 1414 1414 1414 1414 1414 1414 1414
1410 1410 1410 1410 1410 1410 1409 1408 1407 1406 1406 1405 1404 1404 1403 1403 1403 1403 1402 1402 1403 1403 1403 1403 1404 1404 1405 1406 1407 1408 1409 1409 1410 1410 1411 1411 1412 1412 1412 1412 1412 1412 1412 1412
1408 1408 1408 1408 1407 1407 1406 1405 1405 1404 1403 1402 1402 1401 1401 1400 1400 1400 1400 1400 1400 1401 1401 1401 1402 1402 1403 1404 1405 1406 1406 1407 1408 1408 1409 1409 1410 1410 1410 1411 1411 1411 1411 1411
1405 1405 1405 1405 1404 1404 1403 1403 1402 1401 1400 1400 1399 1399 1398 1398 1398 1397 1397 1398 1398 1398 1399 1399 1400 1401 1402 1402 1403 1404 1405 1405 1406 1407 1407 1408 1408 1408 1409 1409 1409 1409 1409 1409
1403 1403 1402 1402 1402 1401 1400 1400 1399 1399 1398 1397 1397 1396 1396 1395 1395 1395 1395 1396 1396 1397 1397 1398 1399 1399 1400 1401 1401 1402 1403 1404 1404 1405 1406 1406 1407 1407 1407 1407 1407 1408 1408 1408
1401 1400 1400 1400 1399 1398 1398 1397 1397 1396 1395 1395 1394 1394 1394 1394 1394 1393 1393 1394 1394 1395 1395 1396 1397 1398 1399 1399 1400 1401 1401 1402 1403 1403 1404 1404 1405 1405 1405 1406 1406 1406 1406 1406
1399 1398 1398 1398 1397 1396 1396 1395 1394 1393 1393 1392 1392 1392 1392 1391 1391 1392 1392 1392 1393 1393 1394 1395 1396 1397 1397 1398 1399 1399 1400 1401 1401 1402 1402 1403 1403 1404 1404 1404 1405 1405 1405 1405
1397 1397 1396 1395 1395 1394 1393 1392 1392 1391 1390 1390 1390 1390 1390 1390 1390 1390 1390 1391 1391 1392 1393 1394 1395 1395 1396 1396 1397 1398 1398 1399 1399 1400 1400 1401 1402 1402 1402 1403 1403 1403 1403 1403